{"data":{"norad_id":51745,"epoch":"2026-05-24T19:26:06.932544Z","epoch_age_seconds":91442,"freshness":"FRESH","line1":"1 51745U 22016AH  26144.80980246 -.00002189  00000+0 -11945-3 0  9991","line2":"2 51745  53.2140 337.4031 0001457  81.3464 278.7693 15.08853047235051","mean_motion":15.08853047,"eccentricity":0.0001457,"inclination_deg":53.214,"raan_deg":337.4031,"arg_perigee_deg":81.3464,"mean_anomaly_deg":278.7693,"bstar":-0.00011945,"rev_number":23505,"period_min":95.436729432538,"perigee_km":538.69558042972,"apogee_km":540.71143915428,"semimajor_km":6917.840509792,"source":"CELESTRAK","updated_at":"2026-05-25T13:38:16.945976Z"}}